Location: Chuathbaluk
(61.5726°N, 159.2454°W)
Time: 00:50:39
(UTC+00:00)

CAS-6 - Visible Passes

Search period start: 24 January 2021 00:00
Search period end: 03 February 2021 00:00
Orbit: 613 x 636 km, 97.9° (Epoch: 23 January)

Date Brightness Start Highest point End Pass type
(mag) Time Alt. Az. Time Alt. Az. Time Alt. Az.
28 Jan ? 06:18:06 11° N 06:18:06 11° N 06:18:18 10° N visible
29 Jan ? 06:36:58 11° N 06:36:58 11° N 06:37:17 10° N visible
30 Jan ? 06:55:49 12° N 06:55:49 12° N 06:56:13 10° N visible
31 Jan ? 07:14:41 12° N 07:14:41 12° N 07:15:07 10° N visible
01 Feb ? 05:56:17 11° NNE 05:56:17 11° NNE 05:56:42 10° N visible
01 Feb ? 07:33:32 12° N 07:33:32 12° N 07:33:58 10° N visible
02 Feb ? 06:15:08 12° NNE 06:15:08 12° NNE 06:15:46 10° N visible
02 Feb ? 07:52:24 12° N 07:52:24 12° N 07:52:48 10° NNW visible
